Time,TemperatureF,DewpointF,PressureIn,WindDirection,WindDirectionDegrees,WindSpeedMPH,WindSpeedGustMPH,Humidity,HourlyPrecipIn,Conditions,Clouds,dailyrainin,SoftwareType,DateUTC
2013-03-02 00:04:00,24.6,20.0,30.14,NNE,32,0.0,4.0,81,0.00,,,0.00,weatherlink.com 1.10,2013-03-02 05:04:00,
2013-03-02 00:19:00,24.7,20.0,30.14,ENE,65,3.0,5.0,81,0.00,,,0.00,weatherlink.com 1.10,2013-03-02 05:19:00,
2013-03-02 00:34:00,24.9,20.0,30.14,NNE,32,4.0,7.0,81,0.00,,,0.00,weatherlink.com 1.10,2013-03-02 05:34:00,
2013-03-02 00:49:00,25.0,20.0,30.14,ENE,57,2.0,4.0,81,0.00,,,0.00,weatherlink.com 1.10,2013-03-02 05:49:00,
2013-03-02 01:05:00,25.0,20.0,30.13,ENE,63,1.0,3.0,80,0.00,,,0.00,weatherlink.com 1.10,2013-03-02 06:05:00,
2013-03-02 01:20:00,25.1,20.0,30.13,East,79,0.0,3.0,80,0.00,,,0.00,weatherlink.com 1.10,2013-03-02 06:20:00,
2013-03-02 01:35:00,25.2,20.0,30.13,NE,44,0.0,3.0,80,0.00,,,0.00,weatherlink.com 1.10,2013-03-02 06:35:00,
2013-03-02 01:50:00,25.2,20.0,30.14,NE,40,1.0,3.0,80,0.00,,,0.00,weatherlink.com 1.10,2013-03-02 06:50:00,
2013-03-02 02:05:00,25.2,20.0,30.13,NE,46,1.0,3.0,79,0.00,,,0.00,weatherlink.com 1.10,2013-03-02 07:05:00,
2013-03-02 02:20:00,25.2,20.0,30.13,NNE,25,1.0,3.0,80,0.00,,,0.00,weatherlink.com 1.10,2013-03-02 07:20:00,
2013-03-02 02:35:00,25.1,20.0,30.13,NNE,26,2.0,5.0,80,0.00,,,0.00,weatherlink.com 1.10,2013-03-02 07:35:00,
2013-03-02 02:50:00,25.1,20.0,30.12,NNE,13,2.0,4.0,82,0.00,,,0.00,weatherlink.com 1.10,2013-03-02 07:50:00,
2013-03-02 03:20:00,25.2,21.0,30.12,North,5,2.0,5.0,83,0.00,,,0.00,weatherlink.com 1.10,2013-03-02 08:20:00,
2013-03-02 03:35:00,25.2,21.0,30.12,NE,47,1.0,6.0,83,0.00,,,0.00,weatherlink.com 1.10,2013-03-02 08:35:00,
2013-03-02 03:50:00,25.1,20.0,30.12,NNE,23,1.0,7.0,82,0.00,,,0.00,weatherlink.com 1.10,2013-03-02 08:50:00,
2013-03-02 04:05:00,25.1,21.0,30.12,NNE,15,2.0,7.0,83,0.00,,,0.00,weatherlink.com 1.10,2013-03-02 09:05:00,
2013-03-02 04:20:00,25.1,21.0,30.12,NE,40,3.0,8.0,83,0.00,,,0.00,weatherlink.com 1.10,2013-03-02 09:20:00,
2013-03-02 04:35:00,25.2,21.0,30.12,NE,46,3.0,5.0,83,0.00,,,0.00,weatherlink.com 1.10,2013-03-02 09:35:00,
2013-03-02 04:50:00,25.2,21.0,30.11,NE,34,4.0,5.0,83,0.00,,,0.00,weatherlink.com 1.10,2013-03-02 09:50:00,
2013-03-02 05:05:00,25.1,21.0,30.11,NE,40,1.0,6.0,83,0.00,,,0.00,weatherlink.com 1.10,2013-03-02 10:05:00,
2013-03-02 05:20:00,25.0,21.0,30.11,NNE,27,4.0,9.0,83,0.00,,,0.00,weatherlink.com 1.10,2013-03-02 10:20:00,
2013-03-02 05:50:00,24.9,20.0,30.11,NNE,31,4.0,9.0,83,0.00,,,0.00,weatherlink.com 1.10,2013-03-02 10:50:00,
2013-03-02 06:05:00,24.8,20.0,30.11,NNE,25,1.0,8.0,83,0.00,,,0.00,weatherlink.com 1.10,2013-03-02 11:05:00,
2013-03-02 06:20:00,24.7,20.0,30.11,NE,40,4.0,11.0,81,0.00,,,0.00,weatherlink.com 1.10,2013-03-02 11:20:00,
2013-03-02 06:35:00,24.7,20.0,30.12,NNE,22,2.0,9.0,81,0.00,,,0.00,weatherlink.com 1.10,2013-03-02 11:35:00,
2013-03-02 06:50:00,24.7,20.0,30.12,NE,36,4.0,9.0,81,0.00,,,0.00,weatherlink.com 1.10,2013-03-02 11:50:00,
2013-03-02 07:05:00,24.6,20.0,30.12,NNE,30,8.0,8.0,81,0.00,,,0.00,weatherlink.com 1.10,2013-03-02 12:05:00,
2013-03-02 07:20:00,24.5,19.0,30.12,NNE,29,5.0,9.0,80,0.00,,,0.00,weatherlink.com 1.10,2013-03-02 12:20:00,
2013-03-02 07:35:00,24.4,18.0,30.13,NNE,30,7.0,11.0,78,0.00,,,0.00,weatherlink.com 1.10,2013-03-02 12:35:00,
2013-03-02 07:50:00,24.3,18.0,30.13,NNE,20,4.0,10.0,78,0.00,,,0.00,weatherlink.com 1.10,2013-03-02 12:50:00,
2013-03-02 08:05:00,24.3,18.0,30.13,NNE,28,2.0,9.0,78,0.00,,,0.00,weatherlink.com 1.10,2013-03-02 13:05:00,
2013-03-02 08:20:00,24.4,18.0,30.13,NNE,13,2.0,9.0,78,0.00,,,0.00,weatherlink.com 1.10,2013-03-02 13:20:00,
2013-03-02 08:36:00,24.5,19.0,30.13,NE,35,4.0,12.0,78,0.00,,,0.00,weatherlink.com 1.10,2013-03-02 13:36:00,
2013-03-02 08:51:00,24.7,19.0,30.14,NNE,23,4.0,10.0,78,0.00,,,0.00,weatherlink.com 1.10,2013-03-02 13:51:00,
2013-03-02 09:06:00,24.9,18.0,30.13,NNE,30,6.0,11.0,76,0.00,,,0.00,weatherlink.com 1.10,2013-03-02 14:06:00,
2013-03-02 09:21:00,24.7,18.0,30.13,NNE,15,4.0,10.0,76,0.00,,,0.00,weatherlink.com 1.10,2013-03-02 14:21:00,
2013-03-02 09:36:00,25.3,18.0,30.14,NE,40,3.0,11.0,75,0.00,,,0.00,weatherlink.com 1.10,2013-03-02 14:36:00,
2013-03-02 09:51:00,25.5,18.0,30.14,ENE,64,8.0,14.0,72,0.00,,,0.00,weatherlink.com 1.10,2013-03-02 14:51:00,
2013-03-02 10:06:00,26.0,18.0,30.14,NE,39,3.0,12.0,71,0.00,,,0.00,weatherlink.com 1.10,2013-03-02 15:06:00,
2013-03-02 10:21:00,25.8,18.0,30.14,NE,41,3.0,12.0,71,0.00,,,0.00,weatherlink.com 1.10,2013-03-02 15:21:00,
2013-03-02 10:36:00,26.8,18.0,30.14,North,360,5.0,10.0,70,0.00,,,0.00,weatherlink.com 1.10,2013-03-02 15:36:00,
2013-03-02 10:51:00,27.0,19.0,30.13,North,351,2.0,10.0,72,0.00,,,0.00,weatherlink.com 1.10,2013-03-02 15:51:00,
2013-03-02 11:06:00,27.0,19.0,30.13,NNW,340,3.0,9.0,71,0.00,,,0.00,weatherlink.com 1.10,2013-03-02 16:06:00,
2013-03-02 11:21:00,27.2,19.0,30.13,NW,309,4.0,11.0,70,0.00,,,0.00,weatherlink.com 1.10,2013-03-02 16:21:00,
2013-03-02 11:36:00,27.8,18.0,30.13,NNW,327,2.0,11.0,68,0.00,,,0.00,weatherlink.com 1.10,2013-03-02 16:36:00,
2013-03-02 11:51:00,28.4,19.0,30.13,NE,43,5.0,9.0,68,0.00,,,0.00,weatherlink.com 1.10,2013-03-02 16:51:00,
2013-03-02 12:06:00,28.1,19.0,30.12,NNE,27,6.0,12.0,68,0.00,,,0.00,weatherlink.com 1.10,2013-03-02 17:06:00,
2013-03-02 12:21:00,28.8,19.0,30.12,NE,45,6.0,10.0,67,0.00,,,0.00,weatherlink.com 1.10,2013-03-02 17:21:00,
2013-03-02 12:36:00,28.8,19.0,30.12,North,350,5.0,11.0,68,0.00,,,0.00,weatherlink.com 1.10,2013-03-02 17:36:00,
2013-03-02 12:51:00,29.8,19.0,30.12,NNE,27,3.0,9.0,65,0.00,,,0.00,weatherlink.com 1.10,2013-03-02 17:51:00,
2013-03-02 13:06:00,29.3,19.0,30.11,NNE,14,4.0,11.0,65,0.00,,,0.00,weatherlink.com 1.10,2013-03-02 18:06:00,
2013-03-02 13:21:00,30.0,19.0,30.11,NE,36,3.0,10.0,65,0.00,,,0.00,weatherlink.com 1.10,2013-03-02 18:21:00,
2013-03-02 13:36:00,30.9,20.0,30.10,NNW,347,5.0,9.0,63,0.00,,,0.00,weatherlink.com 1.10,2013-03-02 18:36:00,
2013-03-02 13:51:00,31.3,20.0,30.10,ENE,67,4.0,11.0,64,0.00,,,0.00,weatherlink.com 1.10,2013-03-02 18:51:00,
2013-03-02 14:06:00,30.8,19.0,30.09,North,9,2.0,9.0,63,0.00,,,0.00,weatherlink.com 1.10,2013-03-02 19:06:00,
2013-03-02 14:21:00,31.0,19.0,30.09,NNE,30,4.0,10.0,62,0.00,,,0.00,weatherlink.com 1.10,2013-03-02 19:21:00,
2013-03-02 14:36:00,30.7,19.0,30.09,NNE,23,3.0,10.0,63,0.00,,,0.00,weatherlink.com 1.10,2013-03-02 19:36:00,
2013-03-02 14:51:00,30.7,19.0,30.09,NE,46,2.0,9.0,63,0.00,,,0.00,weatherlink.com 1.10,2013-03-02 19:51:00,
2013-03-02 15:06:00,31.0,20.0,30.09,NW,304,4.0,9.0,63,0.00,,,0.00,weatherlink.com 1.10,2013-03-02 20:06:00,
2013-03-02 15:21:00,30.8,19.0,30.09,NNE,15,3.0,10.0,63,0.00,,,0.00,weatherlink.com 1.10,2013-03-02 20:21:00,
2013-03-02 15:36:00,30.8,19.0,30.09,North,5,0.0,8.0,63,0.00,,,0.00,weatherlink.com 1.10,2013-03-02 20:36:00,
2013-03-02 15:51:00,31.1,20.0,30.09,NE,39,3.0,8.0,63,0.00,,,0.00,weatherlink.com 1.10,2013-03-02 20:51:00,
2013-03-02 16:06:00,30.2,20.0,30.09,NW,318,6.0,8.0,65,0.00,,,0.00,weatherlink.com 1.10,2013-03-02 21:06:00,
2013-03-02 16:21:00,30.8,19.0,30.09,WNW,294,1.0,8.0,63,0.00,,,0.00,weatherlink.com 1.10,2013-03-02 21:21:00,
2013-03-02 16:36:00,30.2,19.0,30.09,NE,36,7.0,12.0,64,0.00,,,0.00,weatherlink.com 1.10,2013-03-02 21:36:00,
2013-03-02 16:51:00,30.1,19.0,30.09,NE,53,5.0,9.0,64,0.00,,,0.00,weatherlink.com 1.10,2013-03-02 21:51:00,
2013-03-02 17:06:00,29.8,19.0,30.09,NNE,13,5.0,7.0,65,0.00,,,0.00,weatherlink.com 1.10,2013-03-02 22:06:00,
2013-03-02 17:21:00,29.7,20.0,30.10,WNW,302,3.0,8.0,66,0.00,,,0.00,weatherlink.com 1.10,2013-03-02 22:21:00,
2013-03-02 17:36:00,29.5,19.0,30.10,NNE,33,5.0,9.0,66,0.00,,,0.00,weatherlink.com 1.10,2013-03-02 22:36:00,
2013-03-02 17:51:00,29.4,19.0,30.10,NNW,346,4.0,9.0,66,0.00,,,0.00,weatherlink.com 1.10,2013-03-02 22:51:00,
2013-03-02 18:06:00,29.0,19.0,30.10,WSW,244,1.0,8.0,66,0.00,,,0.00,weatherlink.com 1.10,2013-03-02 23:06:00,
2013-03-02 18:21:00,28.9,20.0,30.10,North,5,2.0,7.0,68,0.00,,,0.00,weatherlink.com 1.10,2013-03-02 23:21:00,
2013-03-02 18:36:00,28.8,19.0,30.11,NW,321,4.0,7.0,67,0.00,,,0.00,weatherlink.com 1.10,2013-03-02 23:36:00,
2013-03-02 18:51:00,28.6,20.0,30.11,NW,307,4.0,8.0,69,0.00,,,0.00,weatherlink.com 1.10,2013-03-02 23:51:00,
2013-03-02 19:06:00,28.5,20.0,30.11,WNW,294,2.0,7.0,69,0.00,,,0.00,weatherlink.com 1.10,2013-03-03 00:06:00,
2013-03-02 19:21:00,28.3,20.0,30.12,WNW,294,1.0,5.0,70,0.00,,,0.00,weatherlink.com 1.10,2013-03-03 00:21:00,
2013-03-02 19:36:00,28.3,19.0,30.12,West,281,1.0,9.0,69,0.00,,,0.00,weatherlink.com 1.10,2013-03-03 00:36:00,
2013-03-02 19:51:00,28.3,20.0,30.11,WNW,294,3.0,9.0,70,0.00,,,0.00,weatherlink.com 1.10,2013-03-03 00:51:00,
2013-03-02 20:06:00,27.8,21.0,30.11,NNW,344,1.0,9.0,74,0.00,,,0.00,weatherlink.com 1.10,2013-03-03 01:06:00,
2013-03-02 20:21:00,27.6,21.0,30.11,WNW,294,3.0,10.0,75,0.00,,,0.00,weatherlink.com 1.10,2013-03-03 01:21:00,
2013-03-02 20:36:00,27.4,20.0,30.11,NNW,338,5.0,9.0,74,0.00,,,0.00,weatherlink.com 1.10,2013-03-03 01:36:00,
2013-03-02 20:51:00,27.3,20.0,30.11,NNW,339,5.0,12.0,74,0.00,,,0.00,weatherlink.com 1.10,2013-03-03 01:51:00,
2013-03-02 21:06:00,27.2,20.0,30.12,NW,304,3.0,8.0,74,0.00,,,0.00,weatherlink.com 1.10,2013-03-03 02:06:00,
2013-03-02 21:21:00,26.9,19.0,30.12,NE,52,2.0,10.0,73,0.00,,,0.00,weatherlink.com 1.10,2013-03-03 02:21:00,
2013-03-02 21:36:00,26.7,19.0,30.13,NNE,17,5.0,11.0,72,0.00,,,0.00,weatherlink.com 1.10,2013-03-03 02:36:00,
2013-03-02 21:51:00,26.3,18.0,30.13,NE,46,4.0,8.0,72,0.00,,,0.00,weatherlink.com 1.10,2013-03-03 02:51:00,
2013-03-02 22:06:00,25.8,18.0,30.13,NNE,23,5.0,9.0,73,0.00,,,0.00,weatherlink.com 1.10,2013-03-03 03:06:00,
2013-03-02 22:21:00,25.6,18.0,30.13,NE,51,3.0,7.0,73,0.00,,,0.00,weatherlink.com 1.10,2013-03-03 03:21:00,
2013-03-02 22:36:00,25.4,18.0,30.12,NE,37,2.0,9.0,74,0.00,,,0.00,weatherlink.com 1.10,2013-03-03 03:36:00,
2013-03-02 22:51:00,25.4,19.0,30.13,WNW,296,1.0,5.0,75,0.00,,,0.00,weatherlink.com 1.10,2013-03-03 03:51:00,
2013-03-02 23:06:00,25.3,18.0,30.12,North,360,0.0,5.0,75,0.00,,,0.00,weatherlink.com 1.10,2013-03-03 04:06:00,
2013-03-02 23:21:00,25.3,18.0,30.12,NE,41,0.0,6.0,74,0.00,,,0.00,weatherlink.com 1.10,2013-03-03 04:21:00,
2013-03-02 23:36:00,25.2,18.0,30.12,North,5,2.0,4.0,75,0.00,,,0.00,weatherlink.com 1.10,2013-03-03 04:36:00,
2013-03-02 23:51:00,25.3,18.0,30.12,NE,46,3.0,4.0,74,0.00,,,0.00,weatherlink.com 1.10,2013-03-03 04:51:00,